When you browse on this site, cookies collect data to enhance your experience and personalize the content and advertising you see.
Visit our Privacy Policy to learn more. By continuing to use the site, you agree to this use of cookies and data.
  • In Romania
  • List of Countries
  • For 7 days
  • Water Temperature
  • Satellite Maps
  • Weather Map
  • Weather Widgets
  • user-avatar
    Login

    Hourly Weather Gruszow

    Today, 25 May, Saturday

    Time Temperature Precipitation Wind Pressure Humidity
    00:00 +12°C° 0 mm 2 mps 740 mmHg 73%
    01:00 +12°C° 0 mm 2 mps 740 mmHg 74%
    02:00 +12°C° 0 mm 2 mps 740 mmHg 76%
    03:00 +12°C° 0 mm 2 mps 740 mmHg 78%
    04:00 +12°C° 0 mm 2 mps 740 mmHg 80%
    05:00 +13°C° 0 mm 2 mps 741 mmHg 78%
    06:00 +15°C° 0 mm 2 mps 741 mmHg 76%
    07:00 +17°C° 0 mm 2 mps 741 mmHg 74%
    08:00 +18°C° 0.4 mm 2 mps 741 mmHg 73%
    09:00 +19°C° 0.4 mm 3 mps 741 mmHg 71%
    10:00 +20°C° 0.4 mm 3 mps 741 mmHg 70%
    11:00 +20°C° 0.7 mm 3 mps 741 mmHg 69%
    12:00 +20°C° 0.7 mm 3 mps 741 mmHg 68%
    13:00 +21°C° 0.7 mm 3 mps 741 mmHg 68%
    14:00 +20°C° 0.5 mm 3 mps 741 mmHg 69%
    15:00 +20°C° 0.5 mm 3 mps 741 mmHg 71%
    16:00 +20°C° 0.5 mm 3 mps 741 mmHg 72%
    17:00 +19°C° 0.3 mm 2 mps 741 mmHg 76%
    18:00 +18°C° 0.3 mm 2 mps 741 mmHg 80%
    19:00 +17°C° 0.3 mm 2 mps 741 mmHg 85%
    20:00 +15°C° 0 mm 2 mps 741 mmHg 86%
    21:00 +14°C° 0 mm 2 mps 742 mmHg 88%
    22:00 +13°C° 0 mm 2 mps 742 mmHg 89%
    23:00 +12°C° 0 mm 2 mps 742 mmHg 91%

    Tomorrow, 26 May, Sunday

    Time Temperature Precipitation Wind Pressure Humidity
    00:00 +10°C° 0 mm 2 mps 742 mmHg 92%
    01:00 +9°C° 0 mm 2 mps 742 mmHg 93%
    02:00 +9°C° 0 mm 2 mps 742 mmHg 93%
    03:00 +10°C° 0 mm 1 mps 742 mmHg 93%
    04:00 +9°C° 0 mm 1 mps 742 mmHg 93%
    05:00 +11°C° 0 mm 1 mps 742 mmHg 89%
    06:00 +13°C° 0 mm 1 mps 742 mmHg 85%
    07:00 +14°C° 0 mm 1 mps 742 mmHg 82%
    08:00 +16°C° 0 mm 1 mps 742 mmHg 74%
    09:00 +18°C° 0 mm 2 mps 742 mmHg 67%
    10:00 +19°C° 0 mm 2 mps 742 mmHg 60%
    11:00 +20°C° 0 mm 3 mps 741 mmHg 59%
    12:00 +21°C° 0 mm 3 mps 741 mmHg 57%
    13:00 +21°C° 0 mm 3 mps 740 mmHg 55%
    14:00 +22°C° 0.1 mm 3 mps 740 mmHg 57%
    15:00 +22°C° 0.1 mm 3 mps 740 mmHg 59%
    16:00 +22°C° 0.1 mm 4 mps 740 mmHg 61%
    17:00 +21°C° 0.2 mm 3 mps 740 mmHg 67%
    18:00 +20°C° 0.2 mm 2 mps 740 mmHg 73%
    19:00 +19°C° 0.2 mm 1 mps 739 mmHg 79%
    20:00 +17°C° 0 mm 2 mps 740 mmHg 81%
    21:00 +16°C° 0 mm 2 mps 740 mmHg 84%
    22:00 +15°C° 0 mm 2 mps 740 mmHg 86%
    23:00 +14°C° 0 mm 2 mps 740 mmHg 87%

    Day after tomorrow, 27 May, Monday

    Time Temperature Precipitation Wind Pressure Humidity
    00:00 +14°C° 0 mm 2 mps 740 mmHg 88%
    01:00 +13°C° 0 mm 2 mps 739 mmHg 89%
    02:00 +12°C° 0 mm 3 mps 739 mmHg 89%
    03:00 +12°C° 0 mm 3 mps 739 mmHg 90%
    04:00 +12°C° 0 mm 3 mps 738 mmHg 90%
    05:00 +14°C° 0 mm 4 mps 739 mmHg 85%
    06:00 +15°C° 0 mm 4 mps 739 mmHg 80%
    07:00 +18°C° 0 mm 4 mps 739 mmHg 76%
    08:00 +20°C° 0 mm 4 mps 739 mmHg 69%
    09:00 +21°C° 0 mm 4 mps 738 mmHg 63%
    10:00 +22°C° 0 mm 5 mps 738 mmHg 57%
    11:00 +23°C° 0 mm 5 mps 738 mmHg 55%
    12:00 +25°C° 0 mm 5 mps 738 mmHg 54%
    13:00 +25°C° 0 mm 5 mps 738 mmHg 53%
    14:00 +25°C° 0.2 mm 5 mps 737 mmHg 56%
    15:00 +25°C° 0.2 mm 4 mps 737 mmHg 59%
    16:00 +25°C° 0.2 mm 4 mps 737 mmHg 63%
    17:00 +22°C° 0.5 mm 3 mps 737 mmHg 71%
    18:00 +20°C° 0.5 mm 3 mps 737 mmHg 79%
    19:00 +19°C° 0.5 mm 2 mps 737 mmHg 87%
    20:00 +18°C° 0.1 mm 1 mps 737 mmHg 89%
    21:00 +15°C° 0.1 mm 0 mps 737 mmHg 90%
    22:00 +14°C° 0.1 mm 0 mps 737 mmHg 92%
    23:00 +14°C° 0 mm 0 mps 737 mmHg 92%

    28 May, Tuesday

    Time Temperature Precipitation Wind Pressure Humidity
    00:00 +14°C° 0 mm 0 mps 737 mmHg 93%
    01:00 +14°C° 0 mm 0 mps 737 mmHg 94%
    02:00 +15°C° 0.9 mm 1 mps 736 mmHg 95%
    03:00 +15°C° 0.9 mm 1 mps 736 mmHg 96%
    04:00 +15°C° 0.9 mm 1 mps 736 mmHg 98%
    05:00 +15°C° 2.5 mm 1 mps 736 mmHg 98%
    06:00 +15°C° 2.5 mm 1 mps 736 mmHg 98%
    07:00 +15°C° 2.5 mm 2 mps 736 mmHg 98%
    08:00 +15°C° 2.5 mm 2 mps 736 mmHg 98%
    09:00 +14°C° 2.5 mm 3 mps 736 mmHg 98%
    10:00 +13°C° 2.5 mm 3 mps 736 mmHg 97%
    11:00 +13°C° 1.4 mm 4 mps 736 mmHg 97%
    12:00 +13°C° 1.4 mm 4 mps 736 mmHg 97%
    13:00 +12°C° 1.4 mm 5 mps 736 mmHg 96%
    14:00 +11°C° 0.4 mm 6 mps 736 mmHg 96%
    15:00 +11°C° 0.4 mm 6 mps 736 mmHg 95%
    16:00 +11°C° 0.4 mm 7 mps 736 mmHg 95%
    17:00 +11°C° 0.8 mm 6 mps 736 mmHg 95%
    18:00 +11°C° 0.8 mm 6 mps 737 mmHg 96%
    19:00 +12°C° 0.8 mm 5 mps 737 mmHg 96%
    20:00 +12°C° 0.6 mm 5 mps 737 mmHg 96%
    21:00 +12°C° 0.6 mm 5 mps 738 mmHg 96%
    22:00 +12°C° 0.6 mm 5 mps 739 mmHg 96%
    23:00 +10°C° 0.3 mm 5 mps 739 mmHg 96%

    29 May, Wednesday

    Time Temperature Precipitation Wind Pressure Humidity
    00:00 +10°C° 0.3 mm 5 mps 739 mmHg 97%
    01:00 +10°C° 0.3 mm 5 mps 740 mmHg 97%
    02:00 +9°C° 0.1 mm 5 mps 740 mmHg 96%
    03:00 +8°C° 0.1 mm 5 mps 741 mmHg 94%
    04:00 +7°C° 0.1 mm 5 mps 741 mmHg 93%
    05:00 +7°C° 0 mm 5 mps 742 mmHg 91%
    06:00 +7°C° 0 mm 5 mps 743 mmHg 89%
    07:00 +7°C° 0 mm 5 mps 743 mmHg 86%
    08:00 +9°C° 0 mm 5 mps 744 mmHg 80%
    09:00 +10°C° 0 mm 5 mps 744 mmHg 74%
    10:00 +12°C° 0 mm 5 mps 745 mmHg 69%
    11:00 +13°C° 0 mm 5 mps 745 mmHg 67%
    12:00 +13°C° 0 mm 5 mps 745 mmHg 65%
    13:00 +14°C° 0 mm 5 mps 745 mmHg 63%
    14:00 +14°C° 0 mm 4 mps 746 mmHg 63%
    15:00 +14°C° 0 mm 4 mps 746 mmHg 62%
    16:00 +14°C° 0 mm 4 mps 746 mmHg 61%
    17:00 +13°C° 0 mm 3 mps 746 mmHg 66%
    18:00 +12°C° 0 mm 3 mps 747 mmHg 71%
    19:00 +13°C° 0 mm 2 mps 747 mmHg 75%
    20:00 +10°C° 0 mm 2 mps 748 mmHg 77%
    21:00 +10°C° 0 mm 1 mps 748 mmHg 79%
    22:00 +9°C° 0 mm 1 mps 749 mmHg 81%
    23:00 +8°C° 0 mm 1 mps 749 mmHg 84%

    30 May, Thursday

    Time Temperature Precipitation Wind Pressure Humidity
    00:00 +8°C° 0 mm 1 mps 749 mmHg 86%
    01:00 +7°C° 0 mm 1 mps 749 mmHg 89%
    02:00 +7°C° 0 mm 1 mps 749 mmHg 89%
    03:00 +6°C° 0 mm 1 mps 750 mmHg 89%
    04:00 +5°C° 0 mm 0 mps 750 mmHg 89%
    05:00 +7°C° 0 mm 0 mps 750 mmHg 84%
    06:00 +8°C° 0 mm 0 mps 750 mmHg 78%
    07:00 +10°C° 0 mm 0 mps 750 mmHg 73%
    08:00 +12°C° 0 mm 0 mps 750 mmHg 68%
    09:00 +14°C° 0 mm 1 mps 749 mmHg 63%
    10:00 +16°C° 0 mm 1 mps 749 mmHg 57%
    11:00 +18°C° 0 mm 1 mps 749 mmHg 55%
    12:00 +19°C° 0 mm 1 mps 748 mmHg 53%
    13:00 +18°C° 0 mm 0 mps 748 mmHg 50%
    14:00 +20°C° 0 mm 1 mps 747 mmHg 52%
    15:00 +19°C° 0 mm 1 mps 747 mmHg 54%
    16:00 +19°C° 0 mm 1 mps 747 mmHg 55%
    17:00 +18°C° 0 mm 1 mps 746 mmHg 62%
    18:00 +16°C° 0 mm 2 mps 746 mmHg 68%
    19:00 +15°C° 0 mm 2 mps 746 mmHg 75%
    20:00 +14°C° 0 mm 2 mps 746 mmHg 77%
    21:00 +12°C° 0 mm 2 mps 746 mmHg 78%
    22:00 +10°C° 0 mm 3 mps 746 mmHg 80%
    23:00 +10°C° 0 mm 3 mps 746 mmHg 78%
    Show more